Wilmington, DE

10:47 AM EDT on October 23, 2017 (GMT -0400)
New Castle County

Weather History for KILG - November, 2012

Change the Weather History Date:

Friday, November 2, 2012

  Actual Average Record
Temperature  
Mean Temperature 48 °F 51 °F  
Max Temperature 52 °F 61 °F 81 °F (1950)
Min Temperature 43 °F 41 °F 26 °F (1976)
Degree Days  
Heating Degree Days 17 14  
Month to date heating degree days 35 28  
Since 1 July heating degree days 310 372  
Cooling Degree Days 0 0  
Month to date cooling degree days 0 0  
Year to date cooling degree days 1387 1145  
Moisture  
Dew Point 34 °F    
Average Humidity 61    
Maximum Humidity 71    
Minimum Humidity 50    
Precipitation  
Precipitation 0.00 in 0.11 in 2.48 in (1956)
Month to date precipitation T 0.21  
Year to date precipitation 31.41 36.71  
Snow  
Snow 0.00 in 0.00 in T in (1958)
Month to date snowfall 0.0 0.0  
Since 1 July snowfall 0.0 0.0  
Since 1 September snowfall 0.0 0.0  
Snow Depth 0.00 in    
Sea Level Pressure  
Sea Level Pressure 29.75 in    
Wind  
Wind Speed 12 mph (WNW)    
Max Wind Speed 23 mph    
Max Gust Speed 31 mph    
Visibility 10 miles    
Events      
T = Trace of Precipitation, MM = Missing Value Source: NWS Daily Summary

Daily Weather History Graph

Daily Weather History Graph

Search for Another Location

Airport or City:

Trip Planner

Search our weather history database for the weather conditions in past years. The results will help you decide how hot, cold, wet, or windy it might be!

Date:

Astronomy

Nov. 02, 2012 Rise Set
Actual Time 7:32 AM EDT 5:58 PM EDT
Civil Twilight 7:04 AM EDT 6:26 PM EDT
Nautical Twilight 6:32 AM EDT 6:58 PM EDT
Astronomical Twilight 6:01 AM EDT 7:30 PM EDT
Moon 8:44 PM EDT (11/2) 10:50 AM EDT (11/2)
Length of Visible Light 11h 22m
Length of Day
10h 26m
Waning Gibbous, 87% of the Moon is Illuminated
Nov 2
Waning Gibbous
Nov 6
Last Quarter
Nov 13
New
Nov 20
First Quarter
Nov 28
Full

Hourly Weather History & Observations

Time (EDT) Temp. Windchill Dew Point Humidity Pressure Visibility Wind Dir Wind Speed Gust Speed Precip Events Conditions
12:51 AM 48.2 °F - 35.6 °F 62% 29.71 in 10.0 mi WSW 9.2 mph - N/A   Overcast
1:51 AM 46.9 °F - 37.0 °F 68% 29.71 in 10.0 mi West 9.2 mph - N/A   Overcast
2:51 AM 46.9 °F - 36.0 °F 66% 29.71 in 10.0 mi West 8.1 mph - N/A   Overcast
3:51 AM 46.9 °F - 36.0 °F 66% 29.70 in 10.0 mi West 9.2 mph - N/A   Overcast
4:51 AM 46.0 °F 39.9 °F 34.0 °F 63% 29.70 in 10.0 mi WNW 13.8 mph - N/A   Mostly Cloudy
5:51 AM 45.0 °F 39.7 °F 33.1 °F 63% 29.70 in 10.0 mi West 10.4 mph - N/A   Overcast
6:51 AM 44.1 °F 40.1 °F 33.1 °F 65% 29.71 in 10.0 mi West 6.9 mph - N/A   Mostly Cloudy
7:51 AM 43.0 °F 37.7 °F 33.1 °F 68% 29.72 in 10.0 mi West 9.2 mph - N/A   Mostly Cloudy
8:51 AM 44.1 °F 38.6 °F 33.1 °F 65% 29.74 in 10.0 mi West 10.4 mph - N/A   Overcast
9:51 AM 46.0 °F 41.0 °F 34.0 °F 63% 29.74 in 10.0 mi West 10.4 mph - N/A   Clear
10:51 AM 48.9 °F - 34.0 °F 56% 29.74 in 10.0 mi WNW 11.5 mph - N/A   Scattered Clouds
11:51 AM 51.8 °F - 35.6 °F 54% 29.73 in 10.0 mi West 18.4 mph - N/A   Scattered Clouds
12:51 PM 50.0 °F - 33.1 °F 52% 29.73 in 10.0 mi NW 15.0 mph - N/A   Overcast
1:51 PM 50.0 °F - 36.0 °F 59% 29.72 in 10.0 mi NW 11.5 mph - N/A   Overcast
2:51 PM 48.9 °F - 34.0 °F 56% 29.72 in 10.0 mi WNW 16.1 mph - N/A   Overcast
3:51 PM 50.0 °F - 33.1 °F 52% 29.73 in 10.0 mi WNW 15.0 mph 21.9 mph N/A   Overcast
4:51 PM 50.0 °F - 32.0 °F 50% 29.74 in 10.0 mi NW 16.1 mph - N/A   Overcast
5:51 PM 50.0 °F - 32.0 °F 50% 29.76 in 10.0 mi WNW 11.5 mph - N/A   Overcast
6:51 PM 50.0 °F - 32.0 °F 50% 29.79 in 10.0 mi NW 13.8 mph 21.9 mph N/A   Overcast
7:51 PM 48.0 °F - 34.0 °F 58% 29.82 in 10.0 mi WNW 17.3 mph 21.9 mph N/A   Overcast
8:51 PM 46.9 °F - 35.1 °F 63% 29.84 in 10.0 mi NW 13.8 mph - N/A   Overcast
9:51 PM 46.0 °F 41.4 °F 35.1 °F 66% 29.86 in 10.0 mi NW 9.2 mph - N/A   Overcast
10:51 PM 45.0 °F 40.1 °F 34.0 °F 65% 29.87 in 10.0 mi NW 9.2 mph - N/A   Mostly Cloudy
11:51 PM 45.0 °F 40.6 °F 34.0 °F 65% 29.87 in 10.0 mi NW 8.1 mph - N/A   Overcast